Temperature
22 22 22 22 22 22 21 21 20 21 21 21 21 21 20 20 19 18 17 17 16 15 15 15 14 14 13 13 13 12 12 12 12 11 11 11 10 10 10 10 9 9 9 9
21 22 22 22 22 21 21 21 21 21 21 21 21 21 20 19 18 17 17 16 15 15 15 14 14 14 13 13 13 12 12 12 11 11 11 10 10 10 9 9 9 9 9 9
20 21 21 20 21 21 21 21 21 20 20 20 20 20 20 19 18 17 16 16 15 15 14 14 14 13 13 13 12 12 12 11 11 11 10 10 10 9 9 9 9 9 9 9
19 20 19 21 22 21 21 21 20 20 20 20 19 19 18 18 17 17 16 15 15 14 14 13 13 13 13 12 12 12 12 11 11 10 10 10 9 9 9 9 9 9 9 9
19 19 19 20 21 21 20 20 20 20 19 19 18 18 18 17 16 16 15 15 14 14 13 13 13 13 12 12 12 11 11 11 10 10 10 9 9 9 9 9 8 8 8 8
18 18 18 20 20 21 20 18 20 19 19 18 18 16 16 16 16 15 15 14 14 13 13 13 12 12 12 11 11 11 11 10 10 10 9 9 9 9 8 8 8 8 8 8
17 18 19 20 20 20 18 18 19 19 18 18 17 16 16 15 15 14 14 14 13 13 13 12 12 12 11 11 11 11 11 10 10 9 9 9 8 8 8 8 8 7 7 7
17 17 17 19 19 19 18 18 18 18 17 17 16 16 15 14 14 14 13 13 13 12 12 12 11 11 11 11 11 10 10 10 9 9 9 8 8 8 8 8 7 7 7 7
18 18 18 18 18 18 18 18 17 17 16 16 15 15 14 14 13 13 13 13 12 12 11 11 11 11 10 10 10 10 10 9 9 9 8 8 8 7 7 7 7 7 6 6
18 18 18 18 17 17 17 17 16 16 15 15 14 14 14 13 13 12 12 12 11 11 11 11 10 10 10 10 10 9 9 9 9 8 8 8 7 7 7 7 7 6 6 6
17 17 17 17 17 16 16 15 15 15 14 14 14 13 13 12 12 12 11 11 11 10 10 10 10 10 9 9 9 9 9 8 8 8 8 7 7 7 7 7 6 6 6 6
16 17 16 16 15 15 15 14 14 14 13 13 13 12 12 12 11 11 11 10 10 10 9 9 9 9 9 9 9 8 8 8 8 7 7 7 6 6 6 6 6 6 6 6
16 15 15 15 14 14 14 14 13 13 13 12 12 12 11 11 11 10 10 10 9 9 9 9 9 9 8 8 8 8 8 7 7 7 6 6 6 6 5 5 5 5 5 5
14 14 14 14 13 13 13 13 12 12 12 12 11 11 11 10 10 10 9 9 9 9 8 8 8 8 8 8 7 7 7 7 6 6 6 6 6 5 5 5 5 5 5 4
13 13 13 13 12 12 12 12 12 11 11 11 11 10 10 10 9 9 9 9 8 8 8 8 8 8 7 7 7 7 6 6 6 6 6 5 5 5 5 5 4 4 4 4
12 12 12 12 12 12 11 11 11 11 10 10 10 10 9 9 9 8 8 8 8 8 8 7 7 7 7 7 7 6 6 6 5 5 5 5 5 5 4 4 4 4 4 4
12 11 11 11 11 11 11 11 10 10 10 10 9 9 9 8 8 8 8 8 8 7 7 7 7 7 7 6 6 6 6 5 5 5 5 5 5 4 4 4 4 4 3 3
11 11 11 11 11 10 10 10 10 10 9 9 9 9 8 8 8 8 7 7 7 7 7 7 7 7 6 6 6 6 5 5 5 5 5 4 4 4 4 4 3 3 3 3
11 11 10 10 10 10 10 9 9 9 9 8 8 8 8 8 8 7 7 7 7 6 6 6 6 6 6 6 5 5 5 5 4 4 4 4 4 4 4 3 3 3 3 3
10 10 10 10 9 9 9 9 9 8 8 8 8 8 7 7 7 7 7 6 6 6 6 6 6 6 5 5 5 5 5 4 4 4 4 3 3 3 3 3 3 3 3 2
10 10 9 9 9 9 9 8 8 8 8 8 7 7 7 7 7 7 6 6 6 6 6 5 5 5 5 5 4 4 4 4 4 3 3 3 3 3 3 3 3 3 2 2
9 9 9 9 8 8 8 8 8 8 7 7 7 7 7 7 6 6 6 6 5 5 5 5 5 5 5 4 4 4 4 3 3 3 3 3 3 3 2 2 2 2 2 2
9 9 9 8 8 8 8 8 7 7 7 7 7 6 6 6 6 6 5 5 5 5 5 5 4 4 4 4 4 3 3 3 3 3 2 2 2 2 2 2 2 2 1 1
8 8 8 8 8 7 7 7 7 7 6 6 6 6 6 6 5 5 5 5 5 5 4 4 4 4 4 3 3 3 3 3 2 2 2 2 2 2 2 2 1 1 1 1
7 7 7 7 7 7 6 6 6 6 6 6 5 5 5 5 5 5 5 5 4 4 4 4 3 3 3 3 3 3 2 2 2 2 2 2 2 1 1 1 1 1 1 0
7 7 6 6 6 6 6 6 5 5 5 5 5 5 5 4 4 4 4 4 4 4 3 3 3 3 2 2 2 2 2 2 2 1 1 1 1 1 1 1 0 0 0 -0
6 6 6 6 5 5 5 5 5 5 5 5 4 4 4 4 4 4 4 3 3 3 3 2 2 2 2 2 2 2 1 1 1 1 1 1 1 0 0 -0 -0 -0 -0 -0
Wind_Speed
11 9 9 9 9 9 10 10 9 7 5 2 1 4 4 4 5 5 5 5 4 4 3 4 4 4 4 4 4 4 4 3 3 2 2 3 2 2 1 0 0 0 1 2
11 11 11 12 11 11 11 11 10 9 6 3 2 2 3 5 4 4 4 4 3 3 2 2 3 3 4 3 4 4 4 4 3 3 2 3 2 2 2 1 1 1 0 0
9 8 9 11 10 10 9 7 7 7 3 1 2 1 2 3 4 3 3 3 3 2 2 2 2 2 2 3 3 3 3 3 3 3 2 2 2 2 2 2 1 1 1 0
7 7 10 3 1 2 4 4 3 3 1 1 2 2 3 3 3 3 4 3 3 2 2 1 2 2 2 2 3 3 3 3 3 3 2 2 2 3 3 2 2 2 1 1
6 8 8 4 3 3 3 3 2 2 1 2 2 1 1 3 4 4 4 4 3 2 1 1 2 2 2 1 2 2 2 2 3 3 3 3 3 3 3 2 2 2 1 1
6 7 7 1 4 2 1 3 2 2 2 2 1 1 1 5 5 4 4 3 3 2 1 1 2 2 2 2 2 2 2 2 2 3 3 3 3 2 1 2 2 2 2 2
9 9 5 1 3 3 3 1 4 3 2 2 1 1 3 4 4 3 3 3 3 2 2 1 2 1 2 2 2 1 1 1 2 2 3 3 2 1 1 1 1 2 1 2
8 8 5 4 3 2 2 5 4 3 3 2 3 4 4 4 3 2 2 2 2 2 1 2 2 2 2 2 1 0 1 2 2 2 2 1 1 1 1 2 2 2 1 1
3 3 2 3 1 2 3 2 3 2 3 3 2 2 2 2 2 1 1 1 1 1 1 1 1 1 1 1 0 1 1 2 1 1 1 1 2 2 1 2 2 1 1 1
5 4 1 1 2 3 3 3 3 3 2 1 0 0 1 1 1 0 0 0 0 1 1 1 1 1 1 0 1 1 2 1 1 1 1 1 1 1 2 2 2 2 1 2
7 5 3 1 0 1 2 2 2 2 1 0 1 1 0 0 0 0 1 1 1 1 1 2 1 1 1 1 1 2 2 1 1 1 2 2 2 1 2 2 3 3 2 2
6 4 3 2 1 1 1 0 1 1 1 1 1 1 1 1 0 1 1 1 1 2 2 2 1 1 1 1 1 2 2 2 2 1 2 2 2 1 1 1 2 2 2 2
6 5 4 3 2 1 1 1 1 1 0 0 0 0 1 1 1 1 2 2 2 2 2 1 1 1 1 1 2 2 2 2 2 2 2 2 2 3 2 0 1 1 2 2
3 3 4 3 2 1 2 1 0 0 1 1 0 0 1 1 1 1 2 2 2 2 2 1 1 1 1 1 2 2 2 2 2 2 2 3 3 2 2 3 2 1 2 3
4 4 4 3 2 1 1 1 1 1 1 1 0 1 1 1 1 1 1 1 1 2 2 2 2 2 1 1 2 2 2 2 2 2 2 2 2 2 2 2 2 1 1 2
4 4 5 5 4 3 3 2 3 3 2 1 1 1 1 2 2 1 1 2 2 2 2 2 2 1 1 2 2 2 2 3 3 2 3 2 2 2 2 2 2 2 2 2
5 5 5 5 5 5 4 3 3 3 2 2 2 1 1 2 2 2 2 2 2 2 2 2 2 2 2 2 2 2 2 3 4 2 2 3 2 2 2 2 2 2 2 3
6 6 5 5 4 4 4 3 3 3 2 2 1 1 2 3 2 2 2 1 2 2 2 1 1 1 2 2 2 2 2 2 2 2 2 3 3 3 3 3 3 2 2 2
5 4 4 4 3 3 3 3 3 2 1 2 2 2 2 2 2 2 1 1 2 3 2 1 1 2 2 1 1 1 2 3 2 2 2 3 3 3 3 3 3 2 2 2
3 3 3 3 3 3 3 2 2 2 2 2 2 2 2 2 2 2 2 2 2 2 1 0 1 1 1 1 1 1 2 2 3 3 3 3 3 3 3 3 3 3 3 3
2 2 3 3 3 3 3 3 3 3 3 3 3 3 3 2 2 1 2 2 2 1 0 0 1 1 1 1 1 1 2 2 2 2 3 3 3 3 3 3 2 2 3 2
2 3 3 3 3 3 3 3 3 3 3 3 3 3 2 2 2 1 2 2 1 1 0 1 0 0 1 1 1 2 2 2 2 2 2 2 2 2 2 2 2 2 2 2
2 2 2 3 3 3 2 2 3 3 3 3 3 3 3 2 2 2 2 1 1 1 1 1 1 1 1 1 1 2 2 2 2 2 2 2 2 2 3 3 2 2 2 2
1 2 2 2 2 2 2 1 1 1 2 2 2 2 2 2 1 1 1 1 1 1 1 1 1 1 1 1 1 2 2 2 2 1 1 2 2 2 2 2 2 2 2 2
1 2 2 2 2 1 1 1 1 1 1 1 1 1 1 1 1 1 0 1 2 2 1 1 1 1 1 1 1 1 1 1 1 1 1 1 1 1 1 1 1 1 1 2
1 1 1 1 1 0 0 1 1 1 1 1 1 0 0 1 1 1 1 1 1 1 0 0 1 1 0 0 0 1 1 1 1 1 1 1 1 1 1 1 1 1 1 2
0 0 0 0 0 0 1 1 1 1 1 1 1 0 1 1 1 1 2 1 1 1 0 0 0 1 0 0 0 1 1 1 1 1 1 1 1 1 1 1 1 1 1 1
Wind_Direction
274 281 285 266 255 248 248 251 259 265 276 291 105 125 133 134 135 139 148 149 148 154 157 161 161 172 172 163 161 167 172 178 179 182 160 147 142 146 150 155 281 270 335 330
270 264 268 267 257 248 247 252 256 264 271 308 347 80 122 131 134 145 146 142 140 147 152 163 164 177 168 163 165 172 182 182 172 170 159 154 155 155 167 198 253 277 241 328
266 266 271 260 252 243 241 241 252 256 262 321 312 53 61 118 139 150 145 140 145 161 160 169 176 177 168 168 164 172 178 174 160 159 161 164 172 171 191 201 217 263 276 242
264 262 252 249 137 200 231 237 241 256 272 15 36 54 77 97 126 137 139 139 143 150 146 159 165 160 139 154 166 172 176 173 164 167 170 174 185 199 200 199 211 211 232 231
253 258 261 231 194 189 219 240 221 201 143 86 63 46 97 84 87 99 116 124 126 124 122 157 162 144 140 166 176 184 180 168 170 172 184 194 206 210 201 195 214 217 205 218
253 256 257 219 128 134 209 244 139 152 153 137 126 259 141 86 77 78 99 115 118 125 146 153 133 131 161 189 195 203 184 182 189 185 191 203 205 211 212 193 209 222 221 219
249 254 257 107 121 136 213 155 96 102 108 130 163 50 90 96 83 74 83 108 118 139 147 138 137 154 205 216 216 197 156 177 204 195 198 198 199 193 195 207 219 229 232 222
235 243 245 135 162 194 84 80 75 64 70 83 75 77 84 91 90 89 83 111 133 143 142 142 162 193 227 239 235 117 173 193 214 199 193 189 178 199 196 194 213 235 241 250
234 230 108 131 115 62 59 69 66 60 59 66 80 87 88 93 94 93 84 122 144 157 160 167 176 193 250 266 174 199 216 203 194 183 165 164 174 192 210 209 206 228 233 251
270 262 229 144 81 72 51 32 54 63 57 49 32 95 100 101 87 43 292 216 209 186 196 218 185 185 247 315 239 215 222 212 188 176 158 139 151 180 198 220 220 217 231 242
265 269 290 283 346 47 57 46 42 49 61 11 309 269 167 213 167 312 304 307 272 234 227 243 227 216 192 216 245 238 224 215 189 177 173 171 170 180 190 214 209 212 218 218
260 279 290 306 350 19 26 347 1 49 65 24 335 305 302 284 297 288 278 276 273 262 248 242 227 233 222 206 233 238 222 215 198 190 192 180 171 162 154 190 185 192 185 190
287 316 314 319 328 301 271 294 320 320 182 247 291 286 277 269 259 276 269 258 260 259 247 238 226 233 261 249 238 240 223 210 199 196 198 193 187 189 201 235 186 190 190 197
325 315 282 278 275 263 243 238 282 300 260 222 200 325 300 302 290 280 282 282 277 270 255 250 245 238 252 278 257 239 224 218 209 200 192 193 194 201 200 195 201 230 221 207
279 277 276 285 268 244 225 207 207 230 246 248 209 237 266 281 278 285 301 307 285 268 258 249 248 236 211 252 267 254 228 206 196 189 189 192 190 196 202 205 205 202 197 218
264 256 254 250 238 224 215 223 232 237 240 254 268 274 284 299 307 303 297 283 257 256 255 254 261 255 243 243 255 259 239 218 206 194 190 189 191 195 195 201 213 218 214 204
241 241 243 239 230 223 218 219 232 243 244 248 256 264 286 293 283 278 287 288 281 277 270 266 274 266 263 250 239 232 224 213 207 206 197 194 200 205 203 208 218 228 227 203
245 242 240 239 230 225 225 222 226 232 241 255 261 252 250 254 256 270 287 310 312 300 302 308 312 299 276 260 238 225 223 214 203 205 210 210 210 211 210 214 217 229 236 210
244 234 232 233 228 228 228 225 221 222 228 230 236 246 252 259 259 270 262 260 273 283 295 326 294 266 266 234 236 230 221 219 209 209 213 221 222 221 218 217 221 221 217 205
244 229 225 227 225 226 227 223 224 221 227 223 229 243 254 266 263 249 239 244 258 277 284 288 256 264 259 207 232 244 239 236 218 208 216 219 222 227 225 223 215 213 215 214
235 222 214 222 230 231 228 225 229 227 227 221 229 240 249 258 259 246 240 257 281 335 346 259 267 262 247 241 239 254 253 248 238 226 225 226 228 229 227 229 228 225 224 223
247 232 215 213 219 229 226 221 227 229 233 233 236 237 241 248 253 257 257 252 227 136 181 243 242 253 289 283 241 242 247 256 254 245 241 237 235 237 239 237 233 232 228 226
250 245 228 219 222 227 228 223 221 219 227 235 233 232 235 235 235 234 256 255 173 184 205 213 217 254 298 280 258 260 253 248 250 248 250 254 251 247 244 239 234 229 225 225
268 272 266 247 226 220 230 230 223 233 245 257 244 237 228 221 242 249 243 193 179 184 173 173 203 254 266 254 265 277 270 257 251 253 260 267 268 265 262 256 247 231 224 226
259 256 261 254 234 223 221 204 231 245 244 262 264 251 225 193 194 189 142 165 172 156 165 193 231 264 262 263 281 289 293 295 301 307 294 288 285 285 286 280 270 251 242 238
253 268 269 273 289 305 241 210 219 244 246 243 261 251 150 121 122 127 131 127 120 153 215 217 211 217 221 299 348 345 345 328 326 334 324 310 304 300 292 287 292 285 278 276
248 265 247 249 255 242 245 246 247 253 246 228 252 249 139 125 125 135 136 142 151 165 183 157 143 149 163 218 351 356 348 336 328 313 306 312 313 307 303 292 291 289 291 289
Height
1473 1471 1471 1473 1474 1475 1478 1479 1483 1480 1478 1476 1475 1477 1480 1482 1485 1487 1490 1492 1494 1496 1497 1499 1500 1501 1502 1503 1504 1505 1506 1507 1507 1508 1509 1509 1509 1509 1510 1510 1510 1510 1510 1510
1475 1470 1470 1471 1469 1471 1473 1473 1474 1475 1477 1473 1475 1477 1479 1482 1484 1486 1489 1491 1493 1494 1496 1497 1498 1499 1500 1500 1501 1502 1503 1504 1505 1506 1506 1507 1507 1507 1507 1507 1508 1508 1508 1508
1478 1470 1471 1474 1466 1466 1468 1468 1471 1475 1476 1473 1475 1476 1479 1481 1483 1485 1487 1489 1491 1493 1494 1495 1496 1497 1498 1498 1499 1500 1501 1502 1502 1503 1503 1504 1504 1505 1505 1505 1505 1505 1505 1505
1478 1477 1484 1468 1459 1460 1464 1466 1468 1469 1471 1473 1475 1477 1479 1481 1482 1484 1486 1488 1489 1491 1492 1493 1494 1495 1495 1496 1497 1498 1498 1499 1500 1500 1501 1501 1501 1502 1502 1502 1502 1502 1502 1502
1477 1479 1473 1464 1460 1461 1465 1467 1466 1468 1471 1474 1476 1477 1479 1481 1482 1483 1484 1486 1488 1489 1490 1491 1492 1493 1493 1494 1495 1496 1496 1496 1497 1497 1498 1498 1498 1499 1499 1499 1499 1499 1499 1500
1476 1481 1479 1465 1459 1460 1465 1470 1466 1467 1470 1473 1475 1479 1480 1480 1481 1482 1483 1485 1486 1487 1488 1489 1490 1490 1491 1491 1492 1493 1493 1493 1494 1494 1494 1495 1495 1496 1496 1496 1496 1496 1496 1496
1476 1476 1468 1461 1460 1462 1474 1473 1467 1468 1470 1473 1475 1478 1479 1479 1480 1482 1482 1483 1484 1485 1486 1487 1488 1488 1488 1489 1489 1490 1490 1490 1490 1491 1491 1491 1492 1492 1493 1493 1493 1493 1493 1493
1472 1475 1473 1461 1461 1465 1467 1466 1467 1469 1470 1472 1474 1476 1477 1478 1480 1481 1481 1482 1483 1483 1484 1485 1485 1486 1486 1486 1486 1486 1487 1487 1487 1487 1487 1488 1488 1489 1489 1489 1489 1490 1490 1490
1464 1466 1461 1460 1462 1464 1465 1466 1468 1469 1471 1472 1474 1475 1477 1478 1479 1479 1480 1481 1481 1482 1482 1483 1483 1483 1483 1483 1483 1483 1483 1483 1484 1484 1484 1484 1484 1484 1485 1485 1485 1485 1486 1486
1460 1459 1459 1460 1462 1463 1465 1466 1468 1469 1470 1472 1473 1474 1476 1476 1477 1478 1478 1479 1479 1479 1479 1480 1480 1480 1480 1480 1480 1479 1479 1480 1480 1480 1480 1480 1481 1481 1481 1481 1481 1481 1481 1482
1459 1459 1459 1460 1461 1463 1464 1466 1467 1468 1470 1471 1472 1473 1474 1475 1475 1475 1476 1476 1476 1476 1476 1477 1477 1477 1477 1476 1476 1476 1476 1476 1476 1476 1476 1477 1477 1477 1477 1477 1478 1478 1477 1478
1459 1458 1459 1460 1461 1462 1463 1464 1466 1467 1468 1469 1470 1471 1472 1472 1472 1473 1473 1473 1473 1473 1473 1473 1473 1473 1473 1473 1473 1473 1473 1473 1473 1473 1473 1473 1473 1474 1474 1474 1474 1475 1475 1475
1455 1456 1457 1458 1459 1460 1462 1463 1464 1465 1466 1467 1467 1468 1469 1469 1470 1470 1470 1470 1470 1470 1470 1470 1470 1470 1470 1470 1470 1469 1469 1469 1469 1469 1469 1470 1470 1470 1470 1471 1471 1471 1471 1471
1454 1455 1455 1457 1458 1459 1460 1461 1462 1463 1464 1464 1465 1466 1466 1466 1467 1467 1467 1467 1467 1467 1467 1467 1466 1466 1466 1466 1466 1466 1466 1466 1466 1466 1466 1466 1466 1467 1467 1467 1467 1466 1467 1467
1452 1453 1454 1454 1455 1457 1458 1459 1460 1461 1462 1462 1463 1463 1463 1464 1464 1464 1464 1464 1463 1463 1463 1463 1463 1463 1463 1463 1463 1463 1462 1462 1462 1462 1463 1463 1463 1463 1463 1463 1463 1463 1463 1463
1449 1450 1451 1452 1453 1454 1455 1456 1457 1458 1459 1460 1460 1460 1461 1461 1461 1460 1460 1460 1460 1460 1460 1460 1459 1459 1459 1459 1459 1459 1459 1459 1459 1459 1459 1459 1460 1460 1460 1460 1460 1460 1460 1460
1446 1447 1448 1449 1450 1451 1452 1454 1455 1456 1457 1457 1457 1458 1458 1458 1457 1457 1457 1457 1457 1456 1456 1456 1456 1455 1455 1455 1455 1455 1455 1455 1455 1456 1456 1456 1456 1457 1457 1457 1457 1456 1456 1457
1443 1444 1445 1446 1447 1448 1450 1451 1452 1453 1453 1454 1454 1454 1454 1454 1454 1454 1454 1453 1453 1453 1452 1452 1452 1452 1451 1451 1451 1451 1451 1451 1452 1452 1452 1453 1453 1453 1454 1454 1453 1453 1453 1453
1439 1440 1442 1443 1444 1446 1447 1448 1449 1450 1450 1451 1451 1451 1451 1451 1451 1451 1450 1450 1450 1449 1449 1448 1448 1448 1448 1448 1447 1447 1447 1448 1448 1449 1449 1449 1450 1450 1450 1450 1450 1450 1450 1450
1437 1438 1439 1440 1442 1443 1444 1445 1445 1446 1447 1448 1448 1448 1448 1447 1447 1447 1447 1447 1446 1446 1445 1445 1445 1444 1444 1444 1444 1444 1444 1444 1445 1445 1445 1445 1446 1446 1446 1446 1446 1446 1446 1446
1434 1435 1436 1437 1438 1440 1441 1441 1442 1443 1443 1444 1444 1444 1444 1444 1444 1444 1444 1443 1443 1443 1442 1442 1441 1441 1441 1441 1441 1441 1441 1441 1441 1441 1442 1442 1442 1442 1442 1442 1442 1442 1442 1442
1432 1432 1433 1434 1435 1436 1437 1438 1439 1439 1440 1440 1441 1441 1441 1440 1440 1440 1440 1440 1439 1439 1439 1439 1438 1438 1438 1438 1437 1437 1437 1437 1437 1437 1438 1438 1438 1438 1438 1438 1438 1438 1438 1438
1430 1430 1431 1432 1433 1433 1434 1435 1435 1436 1436 1436 1437 1437 1437 1437 1436 1436 1436 1436 1436 1436 1436 1435 1435 1435 1435 1434 1434 1434 1434 1434 1433 1433 1434 1434 1434 1434 1434 1434 1434 1434 1434 1434
1428 1429 1429 1430 1430 1431 1431 1432 1432 1432 1433 1433 1433 1433 1433 1433 1433 1433 1433 1433 1433 1433 1432 1432 1432 1432 1432 1431 1431 1431 1430 1430 1430 1430 1430 1430 1430 1430 1430 1430 1430 1429 1429 1429
1426 1426 1427 1427 1427 1428 1428 1429 1429 1429 1429 1429 1429 1430 1430 1429 1429 1429 1429 1429 1430 1429 1429 1429 1429 1429 1428 1428 1428 1427 1427 1427 1427 1427 1426 1426 1426 1426 1426 1426 1425 1425 1425 1425
1424 1424 1424 1425 1425 1425 1425 1426 1426 1426 1426 1426 1426 1426 1426 1426 1426 1426 1426 1426 1426 1426 1426 1426 1426 1426 1425 1425 1425 1425 1424 1424 1423 1423 1423 1423 1423 1422 1422 1422 1421 1421 1421 1421
1422 1422 1422 1423 1423 1423 1423 1423 1423 1423 1423 1423 1423 1423 1423 1423 1423 1423 1423 1423 1423 1423 1423 1423 1423 1423 1423 1422 1422 1422 1421 1421 1420 1420 1420 1419 1419 1418 1418 1418 1418 1417 1417 1417